Year,Month,Day,Hour,Minute,Value (Times are PST for temperature in C)
2018,04,26,00,00,11.10
2018,04,26,00,01,11.10
2018,04,26,00,02,11.10
2018,04,26,00,03,11.10
2018,04,26,00,04,11.10
2018,04,26,00,05,11.10
2018,04,26,00,06,11.10
2018,04,26,00,07,11.10
2018,04,26,00,08,11.10
2018,04,26,00,09,11.10
2018,04,26,00,10,11.10
2018,04,26,00,11,11.10
2018,04,26,00,12,11.10
2018,04,26,00,13,11.20
2018,04,26,00,14,11.10
2018,04,26,00,15,11.10
2018,04,26,00,16,11.10
2018,04,26,00,17,11.10
2018,04,26,00,18,11.00
2018,04,26,00,19,11.00
2018,04,26,00,20,11.10
2018,04,26,00,21,11.10
2018,04,26,00,22,11.10
2018,04,26,00,23,11.20
2018,04,26,00,24,11.20
2018,04,26,00,25,11.30
2018,04,26,00,26,11.20
2018,04,26,00,27,11.20
2018,04,26,00,28,11.20
2018,04,26,00,29,11.20
2018,04,26,00,30,11.10
2018,04,26,00,31,11.10
2018,04,26,00,32,11.20
2018,04,26,00,33,11.20
2018,04,26,00,34,11.30
2018,04,26,00,35,11.30
2018,04,26,00,36,11.40
2018,04,26,00,37,11.40
2018,04,26,00,38,11.30
2018,04,26,00,39,11.30
2018,04,26,00,40,11.30
2018,04,26,00,41,11.30
2018,04,26,00,42,11.20
2018,04,26,00,43,11.20
2018,04,26,00,44,11.20
2018,04,26,00,45,11.20
2018,04,26,00,46,11.20
2018,04,26,00,47,11.10
2018,04,26,00,48,11.10
2018,04,26,00,49,11.10
2018,04,26,00,50,11.10
2018,04,26,00,51,11.10
2018,04,26,00,52,11.10
2018,04,26,00,53,11.00
2018,04,26,00,54,11.00
2018,04,26,00,55,10.90
2018,04,26,00,56,10.90
2018,04,26,00,57,10.80
2018,04,26,00,58,10.70
2018,04,26,00,59,10.70
2018,04,26,01,00,10.60
2018,04,26,01,01,10.60
2018,04,26,01,02,10.60
2018,04,26,01,03,10.60
2018,04,26,01,04,10.60
2018,04,26,01,05,10.60
2018,04,26,01,06,10.60
2018,04,26,01,07,10.60
2018,04,26,01,08,10.70
2018,04,26,01,09,10.70
2018,04,26,01,10,10.70
2018,04,26,01,11,10.70
2018,04,26,01,12,10.60
2018,04,26,01,13,10.60
2018,04,26,01,14,10.60
2018,04,26,01,15,10.50
2018,04,26,01,16,10.50
2018,04,26,01,17,10.50
2018,04,26,01,18,10.50
2018,04,26,01,19,10.40
2018,04,26,01,20,10.40
2018,04,26,01,21,10.40
2018,04,26,01,22,10.40
2018,04,26,01,23,10.40
2018,04,26,01,24,10.40
2018,04,26,01,25,10.40
2018,04,26,01,26,10.40
2018,04,26,01,27,10.30
2018,04,26,01,28,10.30
2018,04,26,01,29,10.30
2018,04,26,01,30,10.30
2018,04,26,01,31,10.20
2018,04,26,01,32,10.20
2018,04,26,01,33,10.20
2018,04,26,01,34,10.10
2018,04,26,01,35,10.10
2018,04,26,01,36,10.10
2018,04,26,01,37,10.10
2018,04,26,01,38,10.10
2018,04,26,01,39,10.00
2018,04,26,01,40,10.00
2018,04,26,01,41,10.00
2018,04,26,01,42,10.00
2018,04,26,01,43,10.00
2018,04,26,01,44,10.00
2018,04,26,01,45,9.90
2018,04,26,01,46,9.90
2018,04,26,01,47,9.90
2018,04,26,01,48,9.90
2018,04,26,01,49,9.80
2018,04,26,01,50,9.80
2018,04,26,01,51,9.70
2018,04,26,01,52,9.70
2018,04,26,01,53,9.60
2018,04,26,01,54,9.60
2018,04,26,01,55,9.50
2018,04,26,01,56,9.50
2018,04,26,01,57,9.40
2018,04,26,01,58,9.40
2018,04,26,01,59,9.40
2018,04,26,02,00,9.50
2018,04,26,02,01,9.60
2018,04,26,02,02,9.70
2018,04,26,02,03,9.70
2018,04,26,02,04,9.70
2018,04,26,02,05,9.70
2018,04,26,02,06,9.70
2018,04,26,02,07,9.80
2018,04,26,02,08,9.80
2018,04,26,02,09,9.90
2018,04,26,02,10,10.00
2018,04,26,02,11,10.10
2018,04,26,02,12,10.20
2018,04,26,02,13,10.30
2018,04,26,02,14,10.30
2018,04,26,02,15,10.30
2018,04,26,02,16,10.30
2018,04,26,02,17,10.30
2018,04,26,02,18,10.30
2018,04,26,02,19,10.20
2018,04,26,02,20,10.20
2018,04,26,02,21,10.30
2018,04,26,02,22,10.30
2018,04,26,02,23,10.30
2018,04,26,02,24,10.40
2018,04,26,02,25,10.40
2018,04,26,02,26,10.40
2018,04,26,02,27,10.40
2018,04,26,02,28,10.40
2018,04,26,02,29,10.40
2018,04,26,02,30,10.30
2018,04,26,02,31,10.30
2018,04,26,02,32,10.20
2018,04,26,02,33,10.20
2018,04,26,02,34,10.20
2018,04,26,02,35,10.10
2018,04,26,02,36,10.10
2018,04,26,02,37,10.10
2018,04,26,02,38,10.20
2018,04,26,02,39,10.30
2018,04,26,02,40,10.40
2018,04,26,02,41,10.40
2018,04,26,02,42,10.50
2018,04,26,02,43,10.50
2018,04,26,02,44,10.50
2018,04,26,02,45,10.50
2018,04,26,02,46,10.40
2018,04,26,02,47,10.40
2018,04,26,02,48,10.30
2018,04,26,02,49,10.30
2018,04,26,02,50,10.20
2018,04,26,02,51,10.20
2018,04,26,02,52,10.20
2018,04,26,02,53,10.10
2018,04,26,02,54,10.10
2018,04,26,02,55,10.10
2018,04,26,02,56,10.10
2018,04,26,02,57,10.00
2018,04,26,02,58,10.00
2018,04,26,02,59,9.90
2018,04,26,03,00,9.90
2018,04,26,03,01,9.90
2018,04,26,03,02,9.80
2018,04,26,03,03,9.80
2018,04,26,03,04,9.70
2018,04,26,03,05,9.70
2018,04,26,03,06,9.60
2018,04,26,03,07,9.60
2018,04,26,03,08,9.50
2018,04,26,03,09,9.50
2018,04,26,03,10,9.40
2018,04,26,03,11,9.40
2018,04,26,03,12,9.30
2018,04,26,03,13,9.30
2018,04,26,03,14,9.30
2018,04,26,03,15,9.20
2018,04,26,03,16,9.20
2018,04,26,03,17,9.10
2018,04,26,03,18,9.10
2018,04,26,03,19,9.10
2018,04,26,03,20,9.00
2018,04,26,03,21,9.00
2018,04,26,03,22,8.90
2018,04,26,03,23,8.90
2018,04,26,03,24,8.90
2018,04,26,03,25,8.90
2018,04,26,03,26,8.80
2018,04,26,03,27,8.80
2018,04,26,03,28,8.80
2018,04,26,03,29,8.70
2018,04,26,03,30,8.70
2018,04,26,03,31,8.70
2018,04,26,03,32,8.70
2018,04,26,03,33,8.70
2018,04,26,03,34,8.70
2018,04,26,03,35,8.70
2018,04,26,03,36,8.70
2018,04,26,03,37,8.60
2018,04,26,03,38,8.60
2018,04,26,03,39,8.60
2018,04,26,03,40,8.60
2018,04,26,03,41,8.60
2018,04,26,03,42,8.60
2018,04,26,03,43,8.60
2018,04,26,03,44,8.60
2018,04,26,03,45,8.60
2018,04,26,03,46,8.50
2018,04,26,03,47,8.50
2018,04,26,03,48,8.50
2018,04,26,03,49,8.40
2018,04,26,03,50,8.40
2018,04,26,03,51,8.40
2018,04,26,03,52,8.40
2018,04,26,03,53,8.40
2018,04,26,03,54,8.40
2018,04,26,03,55,8.40
2018,04,26,03,56,8.40
2018,04,26,03,57,8.50
2018,04,26,03,58,8.50
2018,04,26,03,59,8.50
2018,04,26,04,00,8.50
2018,04,26,04,01,8.50
2018,04,26,04,02,8.50
2018,04,26,04,03,8.50
2018,04,26,04,04,8.50
2018,04,26,04,05,8.40
2018,04,26,04,06,8.40
2018,04,26,04,07,8.40
2018,04,26,04,08,8.40
2018,04,26,04,09,8.40
2018,04,26,04,10,8.30
2018,04,26,04,11,8.30
2018,04,26,04,12,8.30
2018,04,26,04,13,8.30
2018,04,26,04,14,8.20
2018,04,26,04,15,8.20
2018,04,26,04,16,8.20
2018,04,26,04,17,8.20
2018,04,26,04,18,8.20
2018,04,26,04,19,8.20
2018,04,26,04,20,8.20
2018,04,26,04,21,8.20
2018,04,26,04,22,8.10
2018,04,26,04,23,8.10
2018,04,26,04,24,8.10
2018,04,26,04,25,8.10
2018,04,26,04,26,8.00
2018,04,26,04,27,8.00
2018,04,26,04,28,7.90
2018,04,26,04,29,7.90
2018,04,26,04,30,8.00
2018,04,26,04,31,8.00
2018,04,26,04,32,8.00
2018,04,26,04,33,8.00
2018,04,26,04,34,8.00
2018,04,26,04,35,8.00
2018,04,26,04,36,7.90
2018,04,26,04,37,7.90
2018,04,26,04,38,7.90
2018,04,26,04,39,7.90
2018,04,26,04,40,7.90
2018,04,26,04,41,7.80
2018,04,26,04,42,7.80
2018,04,26,04,43,7.80
2018,04,26,04,44,7.80
2018,04,26,04,45,7.80
2018,04,26,04,46,7.80
2018,04,26,04,47,7.80
2018,04,26,04,48,7.80
2018,04,26,04,49,7.80
2018,04,26,04,50,7.80
2018,04,26,04,51,7.80
2018,04,26,04,52,7.80
2018,04,26,04,53,7.80
2018,04,26,04,54,7.80
2018,04,26,04,55,7.80
2018,04,26,04,56,7.80
2018,04,26,04,57,7.80
2018,04,26,04,58,7.80
2018,04,26,04,59,7.70
2018,04,26,05,00,7.70
2018,04,26,05,01,7.70
2018,04,26,05,02,7.80
2018,04,26,05,03,7.80
2018,04,26,05,04,7.90
2018,04,26,05,05,8.00
2018,04,26,05,06,8.10
2018,04,26,05,07,8.20
2018,04,26,05,08,8.20
2018,04,26,05,09,8.20
2018,04,26,05,10,8.20
2018,04,26,05,11,8.20
2018,04,26,05,12,8.10
2018,04,26,05,13,8.10
2018,04,26,05,14,8.10
2018,04,26,05,15,8.10
2018,04,26,05,16,8.00
2018,04,26,05,17,8.00
2018,04,26,05,18,8.00
2018,04,26,05,19,8.10
2018,04,26,05,20,8.10
2018,04,26,05,21,8.10
2018,04,26,05,22,8.20
2018,04,26,05,23,8.20
2018,04,26,05,24,8.20
2018,04,26,05,25,8.30
2018,04,26,05,26,8.30
2018,04,26,05,27,8.30
2018,04,26,05,28,8.30
2018,04,26,05,29,8.30
2018,04,26,05,30,8.30
2018,04,26,05,31,8.40
2018,04,26,05,32,8.40
2018,04,26,05,33,8.40
2018,04,26,05,34,8.40
2018,04,26,05,35,8.30
2018,04,26,05,36,8.30
2018,04,26,05,37,8.20
2018,04,26,05,38,8.20
2018,04,26,05,39,8.10
2018,04,26,05,40,8.10
2018,04,26,05,41,8.00
2018,04,26,05,42,8.00
2018,04,26,05,43,7.90
2018,04,26,05,44,7.90
2018,04,26,05,45,7.90
2018,04,26,05,46,7.80
2018,04,26,05,47,7.80
2018,04,26,05,48,7.80
2018,04,26,05,49,7.80
2018,04,26,05,50,7.80
2018,04,26,05,51,7.80
2018,04,26,05,52,7.80
2018,04,26,05,53,7.80
2018,04,26,05,54,7.80
2018,04,26,05,55,7.80
2018,04,26,05,56,7.80
2018,04,26,05,57,7.80
2018,04,26,05,58,7.80
2018,04,26,05,59,7.80
2018,04,26,06,00,7.80
2018,04,26,06,01,7.70
2018,04,26,06,02,7.70
2018,04,26,06,03,7.70
2018,04,26,06,04,7.70
2018,04,26,06,05,7.70
2018,04,26,06,06,7.70
2018,04,26,06,07,7.70
2018,04,26,06,08,7.70
2018,04,26,06,09,7.70
2018,04,26,06,10,7.70
2018,04,26,06,11,7.70
2018,04,26,06,12,7.70
2018,04,26,06,13,7.70
2018,04,26,06,14,7.70
2018,04,26,06,15,7.70
2018,04,26,06,16,7.70
2018,04,26,06,17,7.70
2018,04,26,06,18,7.60
2018,04,26,06,19,7.60
2018,04,26,06,20,7.60
2018,04,26,06,21,7.60
2018,04,26,06,22,7.60
2018,04,26,06,23,7.60
2018,04,26,06,24,7.50
2018,04,26,06,25,7.50
2018,04,26,06,26,7.50
2018,04,26,06,27,7.40
2018,04,26,06,28,7.40
2018,04,26,06,29,7.40
2018,04,26,06,30,7.40
2018,04,26,06,31,7.40
2018,04,26,06,32,7.40
2018,04,26,06,33,7.40
2018,04,26,06,34,7.50
2018,04,26,06,35,7.50
2018,04,26,06,36,7.50
2018,04,26,06,37,7.50
2018,04,26,06,38,7.60
2018,04,26,06,39,7.60
2018,04,26,06,40,7.60
2018,04,26,06,41,7.60
2018,04,26,06,42,7.60
2018,04,26,06,43,7.60
2018,04,26,06,44,7.60
2018,04,26,06,45,7.60
2018,04,26,06,46,7.60
2018,04,26,06,47,7.60
2018,04,26,06,48,7.60
2018,04,26,06,49,7.60
2018,04,26,06,50,7.60
2018,04,26,06,51,7.60
2018,04,26,06,52,7.60
2018,04,26,06,53,7.60
2018,04,26,06,54,7.70
2018,04,26,06,55,7.70
2018,04,26,06,56,7.80
2018,04,26,06,57,7.80
2018,04,26,06,58,7.90
2018,04,26,06,59,7.90
2018,04,26,07,00,8.00
2018,04,26,07,01,8.00
2018,04,26,07,02,8.10
2018,04,26,07,03,8.10
2018,04,26,07,04,8.20
2018,04,26,07,05,8.20
2018,04,26,07,06,8.20
2018,04,26,07,07,8.20
2018,04,26,07,08,8.20
2018,04,26,07,09,8.20
2018,04,26,07,10,8.20
2018,04,26,07,11,8.30
2018,04,26,07,12,8.30
2018,04,26,07,13,8.40
2018,04,26,07,14,8.50
2018,04,26,07,15,8.60
2018,04,26,07,16,8.70
2018,04,26,07,17,8.90
2018,04,26,07,18,9.00
2018,04,26,07,19,9.20
2018,04,26,07,20,9.30
2018,04,26,07,21,9.40
2018,04,26,07,22,9.50
2018,04,26,07,23,9.60
2018,04,26,07,24,9.60
2018,04,26,07,25,9.70
2018,04,26,07,26,9.70
2018,04,26,07,27,9.70
2018,04,26,07,28,9.70
2018,04,26,07,29,9.70
2018,04,26,07,30,9.70
2018,04,26,07,31,9.80
2018,04,26,07,32,9.80
2018,04,26,07,33,9.90
2018,04,26,07,34,10.00
2018,04,26,07,35,10.00
2018,04,26,07,36,10.10
2018,04,26,07,37,10.20
2018,04,26,07,38,10.20
2018,04,26,07,39,10.20
2018,04,26,07,40,10.20
2018,04,26,07,41,10.30
2018,04,26,07,42,10.40
2018,04,26,07,43,10.40
2018,04,26,07,44,10.50
2018,04,26,07,45,10.60
2018,04,26,07,46,10.60
2018,04,26,07,47,10.60
2018,04,26,07,48,10.70
2018,04,26,07,49,10.70
2018,04,26,07,50,10.70
2018,04,26,07,51,10.80
2018,04,26,07,52,10.80
2018,04,26,07,53,10.90
2018,04,26,07,54,11.00
2018,04,26,07,55,11.10
2018,04,26,07,56,11.10
2018,04,26,07,57,11.20
2018,04,26,07,58,11.30
2018,04,26,07,59,11.40
2018,04,26,08,00,11.40
2018,04,26,08,01,11.50
2018,04,26,08,02,11.60
2018,04,26,08,03,11.70
2018,04,26,08,04,11.80
2018,04,26,08,05,11.90
2018,04,26,08,06,12.00
2018,04,26,08,07,12.10
2018,04,26,08,08,12.20
2018,04,26,08,09,12.30
2018,04,26,08,10,12.50
2018,04,26,08,11,12.60
2018,04,26,08,12,12.70
2018,04,26,08,13,12.90
2018,04,26,08,14,13.00
2018,04,26,08,15,13.20
2018,04,26,08,16,13.40
2018,04,26,08,17,13.50
2018,04,26,08,18,13.70
2018,04,26,08,19,13.80
2018,04,26,08,20,13.90
2018,04,26,08,21,14.00
2018,04,26,08,22,14.10
2018,04,26,08,23,14.20
2018,04,26,08,24,14.30
2018,04,26,08,25,14.40
2018,04,26,08,26,14.50
2018,04,26,08,27,14.50
2018,04,26,08,28,14.60
2018,04,26,08,29,14.70
2018,04,26,08,30,14.70
2018,04,26,08,31,14.80
2018,04,26,08,32,14.90
2018,04,26,08,33,14.90
2018,04,26,08,34,15.00
2018,04,26,08,35,15.10
2018,04,26,08,36,15.10
2018,04,26,08,37,15.20
2018,04,26,08,38,15.30
2018,04,26,08,39,15.30
2018,04,26,08,40,15.30
2018,04,26,08,41,15.40
2018,04,26,08,42,15.40
2018,04,26,08,43,15.40
2018,04,26,08,44,15.40
2018,04,26,08,45,15.40
2018,04,26,08,46,15.40
2018,04,26,08,47,15.40
2018,04,26,08,48,15.40
2018,04,26,08,49,15.40
2018,04,26,08,50,15.40
2018,04,26,08,51,15.50
2018,04,26,08,52,15.50
2018,04,26,08,53,15.50
2018,04,26,08,54,15.50
2018,04,26,08,55,15.60
2018,04,26,08,56,15.60
2018,04,26,08,57,15.60
2018,04,26,08,58,15.60
2018,04,26,08,59,15.70
2018,04,26,09,00,15.70
2018,04,26,09,01,15.70
2018,04,26,09,02,15.70
2018,04,26,09,03,15.80
2018,04,26,09,04,15.80
2018,04,26,09,05,15.80
2018,04,26,09,06,15.80
2018,04,26,09,07,15.90
2018,04,26,09,08,15.90
2018,04,26,09,09,16.00
2018,04,26,09,10,16.00
2018,04,26,09,11,16.10
2018,04,26,09,12,16.20
2018,04,26,09,13,16.20
2018,04,26,09,14,16.30
2018,04,26,09,15,16.30
2018,04,26,09,16,16.40
2018,04,26,09,17,16.50
2018,04,26,09,18,16.60
2018,04,26,09,19,16.70
2018,04,26,09,20,16.70
2018,04,26,09,21,16.80
2018,04,26,09,22,16.90
2018,04,26,09,23,16.90
2018,04,26,09,24,17.00
2018,04,26,09,25,17.10
2018,04,26,09,26,17.10
2018,04,26,09,27,17.20
2018,04,26,09,28,17.20
2018,04,26,09,29,17.20
2018,04,26,09,30,17.20
2018,04,26,09,31,17.20
2018,04,26,09,32,17.30
2018,04,26,09,33,17.30
2018,04,26,09,34,17.30
2018,04,26,09,35,17.40
2018,04,26,09,36,17.40
2018,04,26,09,37,17.40
2018,04,26,09,38,17.40
2018,04,26,09,39,17.30
2018,04,26,09,40,17.30
2018,04,26,09,41,17.40
2018,04,26,09,42,17.40
2018,04,26,09,43,17.40
2018,04,26,09,44,17.50
2018,04,26,09,45,17.50
2018,04,26,09,46,17.60
2018,04,26,09,47,17.60
2018,04,26,09,48,17.70
2018,04,26,09,49,17.70
2018,04,26,09,50,17.80
2018,04,26,09,51,17.80
2018,04,26,09,52,17.90
2018,04,26,09,53,17.90
2018,04,26,09,54,18.00
2018,04,26,09,55,18.10
2018,04,26,09,56,18.10
2018,04,26,09,57,18.10
2018,04,26,09,58,18.10
2018,04,26,09,59,18.10
2018,04,26,10,00,18.10
2018,04,26,10,01,18.20
2018,04,26,10,02,18.20
2018,04,26,10,03,18.20
2018,04,26,10,04,18.30
2018,04,26,10,05,18.30
2018,04,26,10,06,18.30
2018,04,26,10,07,18.40
2018,04,26,10,08,18.40
2018,04,26,10,09,18.40
2018,04,26,10,10,18.50
2018,04,26,10,11,18.50
2018,04,26,10,12,18.40
2018,04,26,10,13,18.50
2018,04,26,10,14,18.50
2018,04,26,10,15,18.60
2018,04,26,10,16,18.60
2018,04,26,10,17,18.60
2018,04,26,10,18,18.60
2018,04,26,10,19,18.60
2018,04,26,10,20,18.70
2018,04,26,10,21,18.70
2018,04,26,10,22,18.70
2018,04,26,10,23,18.80
2018,04,26,10,24,18.80
2018,04,26,10,25,18.90
2018,04,26,10,26,18.90
2018,04,26,10,27,18.90
2018,04,26,10,28,18.90
2018,04,26,10,29,19.00
2018,04,26,10,30,19.00
2018,04,26,10,31,19.10
2018,04,26,10,32,19.10
2018,04,26,10,33,19.20
2018,04,26,10,34,19.20
2018,04,26,10,35,19.30
2018,04,26,10,36,19.30
2018,04,26,10,37,19.20
2018,04,26,10,38,19.20
2018,04,26,10,39,19.20
2018,04,26,10,40,19.30
2018,04,26,10,41,19.30
2018,04,26,10,42,19.30
2018,04,26,10,43,19.30
2018,04,26,10,44,19.30
2018,04,26,10,45,19.30
2018,04,26,10,46,19.30
2018,04,26,10,47,19.30
2018,04,26,10,48,19.30
2018,04,26,10,49,19.30
2018,04,26,10,50,19.30
2018,04,26,10,51,19.30
2018,04,26,10,52,19.30
2018,04,26,10,53,19.40
2018,04,26,10,54,19.40
2018,04,26,10,55,19.40
2018,04,26,10,56,19.40
2018,04,26,10,57,19.40
2018,04,26,10,58,19.50
2018,04,26,10,59,19.50
2018,04,26,11,00,19.50
2018,04,26,11,01,19.50
2018,04,26,11,02,19.60
2018,04,26,11,03,19.50
2018,04,26,11,04,19.50
2018,04,26,11,05,19.50
2018,04,26,11,06,19.60
2018,04,26,11,07,19.60
2018,04,26,11,08,19.70
2018,04,26,11,09,19.70
2018,04,26,11,10,19.70
2018,04,26,11,11,19.70
2018,04,26,11,12,19.80
2018,04,26,11,13,19.90
2018,04,26,11,14,19.90
2018,04,26,11,15,20.00
2018,04,26,11,16,20.10
2018,04,26,11,17,20.10
2018,04,26,11,18,20.10
2018,04,26,11,19,20.20
2018,04,26,11,20,20.30
2018,04,26,11,21,20.40
2018,04,26,11,22,20.40
2018,04,26,11,23,20.50
2018,04,26,11,24,20.60
2018,04,26,11,25,20.70
2018,04,26,11,26,20.80
2018,04,26,11,27,20.90
2018,04,26,11,28,21.00
2018,04,26,11,29,21.10
2018,04,26,11,30,21.20
2018,04,26,11,31,21.30
2018,04,26,11,32,21.40
2018,04,26,11,33,21.50
2018,04,26,11,34,21.70
2018,04,26,11,35,21.70
2018,04,26,11,36,21.80
2018,04,26,11,37,21.90
2018,04,26,11,38,22.00
2018,04,26,11,39,22.00
2018,04,26,11,40,22.10
2018,04,26,11,41,22.10
2018,04,26,11,42,22.20
2018,04,26,11,43,22.20
2018,04,26,11,44,22.30
2018,04,26,11,45,22.30
2018,04,26,11,46,22.30
2018,04,26,11,47,22.20
2018,04,26,11,48,22.10
2018,04,26,11,49,21.90
2018,04,26,11,50,21.80
2018,04,26,11,51,21.80
2018,04,26,11,52,21.80
2018,04,26,11,53,21.80
2018,04,26,11,54,21.80
2018,04,26,11,55,21.70
2018,04,26,11,56,21.70
2018,04,26,11,57,21.70
2018,04,26,11,58,21.70
2018,04,26,11,59,21.70
2018,04,26,12,00,21.60
2018,04,26,12,01,21.60
2018,04,26,12,02,21.70
2018,04,26,12,03,21.70
2018,04,26,12,04,21.80
2018,04,26,12,05,21.90
2018,04,26,12,06,22.00
2018,04,26,12,07,22.10
2018,04,26,12,08,22.30
2018,04,26,12,09,22.30
2018,04,26,12,10,22.50
2018,04,26,12,11,22.60
2018,04,26,12,12,22.70
2018,04,26,12,13,22.80
2018,04,26,12,14,22.80
2018,04,26,12,15,22.90
2018,04,26,12,16,22.90
2018,04,26,12,17,23.00
2018,04,26,12,18,23.00
2018,04,26,12,19,23.00
2018,04,26,12,20,23.00
2018,04,26,12,21,23.00
2018,04,26,12,22,23.10
2018,04,26,12,23,23.10
2018,04,26,12,24,23.20
2018,04,26,12,25,23.30
2018,04,26,12,26,23.30
2018,04,26,12,27,23.30
2018,04,26,12,28,23.30
2018,04,26,12,29,23.40
2018,04,26,12,30,23.60
2018,04,26,12,31,23.70
2018,04,26,12,32,23.80
2018,04,26,12,33,23.80
2018,04,26,12,34,23.90
2018,04,26,12,35,23.90
2018,04,26,12,36,24.00
2018,04,26,12,37,24.00
2018,04,26,12,38,23.90
2018,04,26,12,39,23.90
2018,04,26,12,40,23.80
2018,04,26,12,41,23.60
2018,04,26,12,42,23.40
2018,04,26,12,43,23.30
2018,04,26,12,44,23.10
2018,04,26,12,45,22.90
2018,04,26,12,46,22.70
2018,04,26,12,47,22.60
2018,04,26,12,48,22.50
2018,04,26,12,49,22.40
2018,04,26,12,50,22.30
2018,04,26,12,51,22.20
2018,04,26,12,52,22.10
2018,04,26,12,53,22.10
2018,04,26,12,54,22.00
2018,04,26,12,55,21.90
2018,04,26,12,56,21.80
2018,04,26,12,57,21.90
2018,04,26,12,58,21.90
2018,04,26,12,59,21.90
2018,04,26,13,00,22.00
2018,04,26,13,01,21.90
2018,04,26,13,02,21.90
2018,04,26,13,03,21.90
2018,04,26,13,04,21.90
2018,04,26,13,05,22.00
2018,04,26,13,06,22.00
2018,04,26,13,07,22.10
2018,04,26,13,08,22.20
2018,04,26,13,09,22.20
2018,04,26,13,10,22.30
2018,04,26,13,11,22.40
2018,04,26,13,12,22.40
2018,04,26,13,13,22.40
2018,04,26,13,14,22.40
2018,04,26,13,15,22.30
2018,04,26,13,16,22.30
2018,04,26,13,17,22.30
2018,04,26,13,18,22.30
2018,04,26,13,19,22.20
2018,04,26,13,20,22.20
2018,04,26,13,21,22.20
2018,04,26,13,22,22.20
2018,04,26,13,23,22.20
2018,04,26,13,24,22.30
2018,04,26,13,25,22.30
2018,04,26,13,26,22.30
2018,04,26,13,27,22.40
2018,04,26,13,28,22.40
2018,04,26,13,29,22.40
2018,04,26,13,30,22.40
2018,04,26,13,31,22.40
2018,04,26,13,32,22.40
2018,04,26,13,33,22.50
2018,04,26,13,34,22.60
2018,04,26,13,35,22.70
2018,04,26,13,36,22.80
2018,04,26,13,37,22.90
2018,04,26,13,38,23.00
2018,04,26,13,39,23.00
2018,04,26,13,40,22.90
2018,04,26,13,41,22.80
2018,04,26,13,42,22.70
2018,04,26,13,43,22.70
2018,04,26,13,44,22.60
2018,04,26,13,45,22.50
2018,04,26,13,46,22.60
2018,04,26,13,47,22.60
2018,04,26,13,48,22.70
2018,04,26,13,49,22.80
2018,04,26,13,50,22.90
2018,04,26,13,51,22.90
2018,04,26,13,52,22.90
2018,04,26,13,53,23.00
2018,04,26,13,54,23.00
2018,04,26,13,55,23.10
2018,04,26,13,56,23.10
2018,04,26,13,57,23.20
2018,04,26,13,58,23.20
2018,04,26,13,59,23.30
2018,04,26,14,00,23.40
2018,04,26,14,01,23.60
2018,04,26,14,02,23.60
2018,04,26,14,03,23.60
2018,04,26,14,04,23.70
2018,04,26,14,05,23.70
2018,04,26,14,06,23.60
2018,04,26,14,07,23.60
2018,04,26,14,08,23.60
2018,04,26,14,09,23.60
2018,04,26,14,10,23.60
2018,04,26,14,11,23.70
2018,04,26,14,12,23.70
2018,04,26,14,13,23.80
2018,04,26,14,14,23.80
2018,04,26,14,15,23.80
2018,04,26,14,16,23.80
2018,04,26,14,17,23.90
2018,04,26,14,18,23.80
2018,04,26,14,19,23.80
2018,04,26,14,20,23.70
2018,04,26,14,21,23.70
2018,04,26,14,22,23.60
2018,04,26,14,23,23.60
2018,04,26,14,24,23.60
2018,04,26,14,25,23.60
2018,04,26,14,26,23.60
2018,04,26,14,27,23.60
2018,04,26,14,28,23.70
2018,04,26,14,29,23.70
2018,04,26,14,30,23.80
2018,04,26,14,31,23.80
2018,04,26,14,32,23.80
2018,04,26,14,33,23.80
2018,04,26,14,34,23.80
2018,04,26,14,35,23.80
2018,04,26,14,36,23.80
2018,04,26,14,37,23.70
2018,04,26,14,38,23.60
2018,04,26,14,39,23.50
2018,04,26,14,40,23.40
2018,04,26,14,41,23.40
2018,04,26,14,42,23.40
2018,04,26,14,43,23.40
2018,04,26,14,44,23.40
2018,04,26,14,45,23.40
2018,04,26,14,46,23.40
2018,04,26,14,47,23.40
2018,04,26,14,48,23.50
2018,04,26,14,49,23.60
2018,04,26,14,50,23.60
2018,04,26,14,51,23.60
2018,04,26,14,52,23.60
2018,04,26,14,53,23.60
2018,04,26,14,54,23.60
2018,04,26,14,55,23.60
2018,04,26,14,56,23.60
2018,04,26,14,57,23.60
2018,04,26,14,58,23.60
2018,04,26,14,59,23.60
2018,04,26,15,00,23.60
2018,04,26,15,01,23.60
2018,04,26,15,02,23.60
2018,04,26,15,03,23.70
2018,04,26,15,04,23.80
2018,04,26,15,05,23.80
2018,04,26,15,06,23.90
2018,04,26,15,07,24.00
2018,04,26,15,08,24.10
2018,04,26,15,09,24.10
2018,04,26,15,10,24.20
2018,04,26,15,11,24.10
2018,04,26,15,12,24.00
2018,04,26,15,13,24.00
2018,04,26,15,14,23.90
2018,04,26,15,15,23.80
2018,04,26,15,16,23.70
2018,04,26,15,17,23.70
2018,04,26,15,18,23.80
2018,04,26,15,19,23.80
2018,04,26,15,20,23.80
2018,04,26,15,21,23.90
2018,04,26,15,22,23.90
2018,04,26,15,23,24.00
2018,04,26,15,24,23.90
2018,04,26,15,25,23.90
2018,04,26,15,26,23.90
2018,04,26,15,27,23.90
2018,04,26,15,28,23.90
2018,04,26,15,29,23.90
2018,04,26,15,30,23.90
2018,04,26,15,31,23.80
2018,04,26,15,32,23.80
2018,04,26,15,33,23.80
2018,04,26,15,34,23.80
2018,04,26,15,35,23.80
2018,04,26,15,36,23.80
2018,04,26,15,37,23.90
2018,04,26,15,38,24.00
2018,04,26,15,39,24.00
2018,04,26,15,40,24.10
2018,04,26,15,41,24.10
2018,04,26,15,42,24.20
2018,04,26,15,43,24.20
2018,04,26,15,44,24.20
2018,04,26,15,45,24.20
2018,04,26,15,46,24.20
2018,04,26,15,47,24.20
2018,04,26,15,48,24.30
2018,04,26,15,49,24.30
2018,04,26,15,50,24.30
2018,04,26,15,51,24.30
2018,04,26,15,52,24.40
2018,04,26,15,53,24.40
2018,04,26,15,54,24.40
2018,04,26,15,55,24.30
2018,04,26,15,56,24.30
2018,04,26,15,57,24.30
2018,04,26,15,58,24.30
2018,04,26,15,59,24.30
2018,04,26,16,00,24.40
2018,04,26,16,01,24.50
2018,04,26,16,02,24.60
2018,04,26,16,03,24.70
2018,04,26,16,04,24.80
2018,04,26,16,05,24.80
2018,04,26,16,06,24.80
2018,04,26,16,07,24.80
2018,04,26,16,08,24.80
2018,04,26,16,09,24.80
2018,04,26,16,10,24.80
2018,04,26,16,11,24.80
2018,04,26,16,12,24.80
2018,04,26,16,13,24.80
2018,04,26,16,14,24.80
2018,04,26,16,15,24.80
2018,04,26,16,16,24.80
2018,04,26,16,17,24.80
2018,04,26,16,18,24.80
2018,04,26,16,19,24.90
2018,04,26,16,20,24.90
2018,04,26,16,21,25.00
2018,04,26,16,22,25.00
2018,04,26,16,23,25.00
2018,04,26,16,24,25.00
2018,04,26,16,25,24.90
2018,04,26,16,26,24.90
2018,04,26,16,27,24.90
2018,04,26,16,28,24.80
2018,04,26,16,29,24.80
2018,04,26,16,30,24.90
2018,04,26,16,31,24.90
2018,04,26,16,32,24.90
2018,04,26,16,33,24.90
2018,04,26,16,34,24.90
2018,04,26,16,35,25.00
2018,04,26,16,36,25.10
2018,04,26,16,37,25.10
2018,04,26,16,38,25.10
2018,04,26,16,39,25.10
2018,04,26,16,40,25.20
2018,04,26,16,41,25.20
2018,04,26,16,42,25.30
2018,04,26,16,43,25.40
2018,04,26,16,44,25.50
2018,04,26,16,45,25.60
2018,04,26,16,46,25.50
2018,04,26,16,47,25.50
2018,04,26,16,48,25.40
2018,04,26,16,49,25.30
2018,04,26,16,50,25.20
2018,04,26,16,51,25.10
2018,04,26,16,52,25.00
2018,04,26,16,53,25.00
2018,04,26,16,54,24.90
2018,04,26,16,55,24.90
2018,04,26,16,56,24.90
2018,04,26,16,57,24.90
2018,04,26,16,58,24.90
2018,04,26,16,59,24.90
2018,04,26,17,00,24.90
2018,04,26,17,01,24.90
2018,04,26,17,02,24.90
2018,04,26,17,03,24.90
2018,04,26,17,04,24.90
2018,04,26,17,05,25.00
2018,04,26,17,06,25.00
2018,04,26,17,07,25.10
2018,04,26,17,08,25.20
2018,04,26,17,09,25.30
2018,04,26,17,10,25.30
2018,04,26,17,11,25.30
2018,04,26,17,12,25.30
2018,04,26,17,13,25.20
2018,04,26,17,14,25.20
2018,04,26,17,15,25.20
2018,04,26,17,16,25.20
2018,04,26,17,17,25.30
2018,04,26,17,18,25.30
2018,04,26,17,19,25.40
2018,04,26,17,20,25.40
2018,04,26,17,21,25.40
2018,04,26,17,22,25.40
2018,04,26,17,23,25.50
2018,04,26,17,24,25.60
2018,04,26,17,25,25.70
2018,04,26,17,26,25.70
2018,04,26,17,27,25.70
2018,04,26,17,28,25.70
2018,04,26,17,29,25.70
2018,04,26,17,30,25.70
2018,04,26,17,31,25.60
2018,04,26,17,32,25.50